Home > Weather > Aurora > Past weeks

Flag for U.S.A. Weather for the Past 2 Weeks in Aurora, Illinois, U.S.A.

Now
39 °F

Sunny.


Feels Like: 30 °F
Forecast: 33 / 44 °F
Wind: 16 mph from Southwest

Location: Dupage Airport

Current Time: Feb 7, 2016 at 10:26:51 AM

Latest Report: Feb 7, 2016 at 9:52 AM


Visibility: 10 mi

Pressure: 29.80 "Hg

Humidity: 65%

Dew point: 28 °F

Location of AuroraLocation

Historic Weather in Aurora — Graph

°F

Aurora Temperature Yesterday

Maximum temperature yesterday: 40 °F (at 1:52 PM)
Minimum temperature yesterday: 23 °F (at 5:52 AM)
Average temperature yesterday: 31 °F

High & Low Weather Summary for the Past Weeks

 TemperatureHumidityPressure
High48 °F (Jan 31, 10:52 AM)100% (Feb 2, 10:04 PM)30.38 "Hg (Feb 2, 10:04 PM)
Low18 °F (Jan 29, 5:52 AM)45% (Jan 29, 12:52 PM)29.46 "Hg (Feb 3, 2:52 AM)
Average32 °F76%29.94 "Hg
* Reported Jan 23 8:52 AM — Feb 7 8:52 AM, Aurora, Weather by CustomWeather, © 2016

Note: Actual official high and low records may vary slightly from our data, if they occured in-between our weather recording intervals... More about our weather records

Advertising

Aurora Weather History for the Previous 24 Hours

 ConditionsComfort  
Time TempWeatherWind HumidityBarometerVisibility
8:52 AM
Sun, Feb 7
38 °FSunny.20 mph68%29.82 "Hg10 mi
7:52 AM36 °FPartly sunny.12 mph73%29.85 "Hg10 mi
6:52 AM35 °FClear.12 mph75%29.87 "Hg10 mi
5:52 AM36 °FClear.14 mph73%29.88 "Hg10 mi
4:52 AM36 °FClear.13 mph73%29.90 "Hg10 mi
3:52 AM34 °FPassing clouds.8 mph79%29.93 "Hg10 mi
2:52 AM33 °FPassing clouds.10 mph78%29.98 "Hg10 mi
1:52 AM35 °FPassing clouds.9 mph75%30.01 "Hg10 mi
12:52 AM33 °FPassing clouds.6 mph78%30.03 "Hg10 mi
11:52 PM
Sat, Feb 6
30 °FPassing clouds.6 mph85%30.05 "Hg9 mi
10:52 PM30 °FClear.6 mph82%30.06 "Hg9 mi
9:52 PM30 °FClear.5 mph82%30.09 "Hg9 mi
8:52 PM30 °FClear.3 mph82%30.11 "Hg9 mi
7:52 PM31 °FClear.5 mph79%30.14 "Hg9 mi
6:52 PM32 °FClear.5 mph75%30.15 "Hg10 mi
5:52 PM34 °FClear.5 mph70%30.16 "Hg10 mi
4:52 PM38 °FSunny.10 mph65%30.16 "Hg10 mi
3:52 PM40 °FSunny.12 mph63%30.17 "Hg10 mi
2:52 PM40 °FSunny.12 mph60%30.17 "Hg10 mi
1:52 PM40 °FScattered clouds.13 mph63%30.19 "Hg10 mi
12:52 PM39 °FScattered clouds.13 mph62%30.21 "Hg10 mi
11:52 AM36 °FPartly sunny.14 mph67%30.23 "Hg10 mi
10:52 AM34 °FOvercast.10 mph70%30.27 "Hg10 mi
Weather by CustomWeather, © 2016

See weather overviewHow to use our weather pages